Location: Arrodets-la-Barthe
(43.0306°N, 0.2829°E)
Time: 03:58:47
(UTC+00:00)

Cosmos 2344 - Pass Details

Date: 01 June 2022
Orbit: 1228 x 3015 km, 63.3° (Epoch: 03 July)

Event Time Altitude Azimuth Distance (km) Brightness Sun altitude
Rises 02:24:49 0° 322° (NW) 4,370 6.6 -16.6°
Reaches altitude 10° 02:27:40 10° 330° (NNW) 3,522 6.2 -16.2°
Maximum altitude 02:35:46 41° 40° (NE) 2,330 5.6 -15.4°
Drops below altitude 10° 02:46:31 10° 107° (ESE) 4,676 6.8 -14.1°
Sets 02:50:55 0° 114° (ESE) 5,953 7.3 -13.6°
